Meadow Lake, CO

12:16 AM MST on December 18, 2017 (GMT -0700)
Meadow Lake

Weather History for KFLY - January, 2013

Change the Weather History Date:

Tuesday, January 8, 2013

  Actual Average (KCOS) Record (KCOS)
Temperature  
Mean Temperature 37 °F -  
Max Temperature 53 °F 38 °F 70 °F (2003)
Min Temperature 21 °F 13 °F -13 °F (1937)
Degree Days  
Heating Degree Days 28    
Moisture  
Dew Point 5 °F    
Average Humidity 28    
Maximum Humidity 67    
Minimum Humidity 13    
Precipitation  
Precipitation 0.00 in - - ()
Sea Level Pressure  
Sea Level Pressure 29.99 in    
Wind  
Wind Speed 9 mph (WSW)    
Max Wind Speed 18 mph    
Max Gust Speed 26 mph    
Visibility 10 miles    
Events      
Averages and records for this station are not official NWS values.
T = Trace of Precipitation, MM = Missing Value Source: NWS Daily Summary

Daily Weather History Graph

Daily Weather History Graph

Search for Another Location

Airport or City:

Trip Planner

Search our weather history database for the weather conditions in past years. The results will help you decide how hot, cold, wet, or windy it might be!

Date:

Astronomy

Jan. 08, 2013 Rise Set
Actual Time 7:17 AM MST 4:53 PM MST
Civil Twilight 6:47 AM MST 5:23 PM MST
Nautical Twilight 6:14 AM MST 5:56 PM MST
Astronomical Twilight 5:42 AM MST 6:28 PM MST
Moon 3:53 AM MST (1/8) 1:57 PM MST (1/8)
Length of Visible Light 10h 35m
Length of Day
9h 36m
Waning Crescent, 13% of the Moon is Illuminated
Jan 8
Waning Crescent
Jan 11
New
Jan 18
First Quarter
Jan 26
Full
Feb 3
Last Quarter

Hourly Weather History & Observations

Time (MST) Temp. Windchill Dew Point Humidity Pressure Visibility Wind Dir Wind Speed Gust Speed Precip Events Conditions
12:14 AM 23.0 °F - 6.8 °F 50% 29.84 in 10.0 mi Calm Calm - N/A   Clear
12:34 AM 25.2 °F 15.1 °F 4.8 °F 42% 29.84 in 10.0 mi WSW 10.4 mph - N/A   Clear
12:54 AM 28.0 °F 20.8 °F 2.5 °F 34% 29.83 in 10.0 mi West 6.9 mph - N/A   Clear
1:14 AM 31.8 °F 21.8 °F -1.3 °F 24% 29.82 in 10.0 mi WNW 13.8 mph - N/A   Clear
1:34 AM 33.3 °F 24.6 °F -2.6 °F 22% 29.83 in 10.0 mi WNW 11.5 mph - N/A   Clear
1:54 AM 32.2 °F 23.2 °F -3.5 °F 22% 29.82 in 10.0 mi WNW 11.5 mph - N/A   Clear
2:14 AM 31.3 °F 22.1 °F -3.8 °F 22% 29.82 in 10.0 mi NNW 11.5 mph - N/A   Clear
2:34 AM 32.2 °F 23.2 °F -4.2 °F 21% 29.83 in 10.0 mi NW 11.5 mph - N/A   Clear
2:54 AM 38.7 °F 30.5 °F -8.0 °F 14% 29.83 in 10.0 mi West 13.8 mph 23.0 mph N/A   Clear
3:14 AM 37.9 °F 29.2 °F -8.3 °F 14% 29.83 in 10.0 mi West 15.0 mph 21.9 mph N/A   Clear
3:34 AM 36.9 °F 28.2 °F -8.1 °F 14% 29.82 in 10.0 mi West 13.8 mph - N/A   Clear
3:54 AM 38.1 °F 30.7 °F -7.6 °F 14% 29.81 in 10.0 mi West 11.5 mph - N/A   Clear
4:14 AM 41.0 °F 32.8 °F -7.4 °F 13% 29.80 in 10.0 mi West 16.1 mph 25.3 mph N/A   Clear
4:34 AM 40.3 °F 31.6 °F -6.9 °F 13% 29.80 in 10.0 mi West 17.3 mph 24.2 mph N/A   Clear
4:54 AM 39.7 °F 33.7 °F -6.7 °F 14% 29.81 in 10.0 mi West 9.2 mph - N/A   Clear
5:14 AM 40.1 °F 36.1 °F -5.8 °F 14% 29.82 in 10.0 mi West 5.8 mph - N/A   Clear
5:54 AM 38.8 °F 33.8 °F -2.9 °F 17% 29.84 in 10.0 mi NW 6.9 mph - N/A   Overcast
6:14 AM 40.1 °F 32.4 °F 1.8 °F 20% 29.84 in 10.0 mi NW 13.8 mph - N/A   Overcast
6:34 AM 39.9 °F 32.1 °F 3.4 °F 22% 29.85 in 10.0 mi NW 13.8 mph - N/A   Scattered Clouds
6:54 AM 39.2 °F 32.0 °F 5.0 °F 24% 29.85 in 10.0 mi WNW 11.5 mph - N/A   Clear
7:14 AM 39.4 °F 33.2 °F 5.5 °F 25% 29.86 in 10.0 mi WNW 9.2 mph - N/A   Clear
7:34 AM 37.6 °F 31.6 °F 5.9 °F 27% 29.86 in 10.0 mi WNW 8.1 mph - N/A   Clear
7:54 AM 40.1 °F 32.7 °F 7.3 °F 26% 29.87 in 10.0 mi WNW 12.7 mph - N/A   Clear
8:14 AM 40.3 °F 31.6 °F 8.1 °F 27% 29.88 in 10.0 mi NW 17.3 mph - N/A   Clear
8:34 AM 39.9 °F 33.9 °F 8.6 °F 28% 29.89 in 10.0 mi WNW 9.2 mph - N/A   Clear
8:54 AM 46.0 °F 39.9 °F 9.3 °F 23% 29.91 in 10.0 mi NW 13.8 mph - N/A   Clear
9:14 AM 46.9 °F - 8.6 °F 21% 29.92 in 10.0 mi NNW 11.5 mph 16.1 mph N/A   Clear
9:34 AM 45.1 °F 39.5 °F 8.6 °F 23% 29.94 in 10.0 mi NNW 11.5 mph - N/A   Clear
9:54 AM 46.8 °F - 8.4 °F 21% 29.94 in 10.0 mi NNW 10.4 mph 16.1 mph N/A   Clear
10:14 AM 48.9 °F - 7.2 °F 18% 29.95 in 10.0 mi NW 12.7 mph 16.1 mph N/A   Clear
10:34 AM 50.9 °F - 6.6 °F 17% 29.95 in 10.0 mi NNW 8.1 mph 17.3 mph N/A   Clear
10:54 AM 52.0 °F - 5.5 °F 15% 29.94 in 10.0 mi North 10.4 mph 17.3 mph N/A   Clear
11:14 AM 52.0 °F - 5.7 °F 15% 29.94 in 10.0 mi NW 10.4 mph 17.3 mph N/A   Clear
11:34 AM 53.2 °F - 5.7 °F 15% 29.94 in 10.0 mi WSW 5.8 mph - N/A   Clear
11:54 AM 52.5 °F - 5.4 °F 15% 29.94 in 10.0 mi SSW 11.5 mph 16.1 mph N/A   Clear
12:14 PM 53.1 °F - 5.0 °F 14% 29.94 in 10.0 mi South 10.4 mph 25.3 mph N/A   Clear
12:54 PM 52.2 °F - 6.4 °F 16% 29.96 in 10.0 mi SSW 18.4 mph 26.5 mph N/A   Clear
1:14 PM 51.8 °F - 8.2 °F 17% 29.97 in 10.0 mi South 16.1 mph 26.5 mph N/A   Clear
1:34 PM 50.7 °F - 8.6 °F 18% 29.98 in 10.0 mi South 10.4 mph 25.3 mph N/A   Clear
1:54 PM 49.8 °F - 7.7 °F 18% 29.99 in 10.0 mi South 11.5 mph 19.6 mph N/A   Clear
2:14 PM 49.5 °F - 6.8 °F 18% 30.00 in 10.0 mi South 12.7 mph 18.4 mph N/A   Clear
2:34 PM 48.7 °F - 6.4 °F 18% 30.02 in 10.0 mi South 11.5 mph 17.3 mph N/A   Clear
2:54 PM 49.1 °F - 7.2 °F 18% 30.02 in 10.0 mi South 11.5 mph - N/A   Clear
3:14 PM 47.5 °F - 7.9 °F 20% 30.04 in 10.0 mi South 9.2 mph - N/A   Clear
3:34 PM 46.2 °F 41.7 °F 9.0 °F 22% 30.05 in 10.0 mi SSW 9.2 mph - N/A   Clear
3:54 PM 46.4 °F 42.4 °F 9.3 °F 22% 30.07 in 10.0 mi South 8.1 mph - N/A   Clear
4:14 PM 41.5 °F 36.4 °F 9.3 °F 27% 30.07 in 10.0 mi South 8.1 mph - N/A   Clear
4:34 PM 38.5 °F 34.1 °F 8.8 °F 29% 30.08 in 10.0 mi SSW 5.8 mph - N/A   Clear
4:54 PM 37.4 °F 34.9 °F 8.6 °F 30% 30.10 in 10.0 mi SW 3.5 mph - N/A   Clear
5:14 PM 35.4 °F 29.7 °F 8.4 °F 33% 30.11 in 10.0 mi SSW 6.9 mph - N/A   Clear
5:34 PM 34.3 °F 27.0 °F 7.7 °F 33% 30.12 in 10.0 mi SSW 9.2 mph - N/A   Clear
5:54 PM 33.8 °F 26.4 °F 6.8 °F 32% 30.14 in 10.0 mi SSW 9.2 mph - N/A   Clear
6:14 PM 32.9 °F 25.9 °F 6.6 °F 33% 30.15 in 10.0 mi SSW 8.1 mph - N/A   Clear
6:54 PM 31.3 °F 24.7 °F 6.8 °F 36% 30.16 in 10.0 mi SSW 6.9 mph - N/A   Clear
7:14 PM 29.3 °F 22.3 °F 7.7 °F 40% 30.16 in 10.0 mi SSW 6.9 mph - N/A   Clear
7:34 PM 29.8 °F 23.0 °F 8.4 °F 41% 30.18 in 10.0 mi WSW 6.9 mph - N/A   Clear
7:54 PM 29.7 °F 23.7 °F 9.1 °F 42% 30.19 in 10.0 mi SW 5.8 mph - N/A   Clear
8:14 PM 28.4 °F 21.2 °F 9.5 °F 45% 30.19 in 10.0 mi SSW 6.9 mph - N/A   Clear
8:34 PM 28.0 °F 20.8 °F 10.4 °F 48% 30.20 in 10.0 mi WSW 6.9 mph - N/A   Clear
9:14 PM 26.6 °F 19.1 °F 10.4 °F 51% 30.22 in 10.0 mi WSW 6.9 mph - N/A   Clear
9:34 PM 26.4 °F 20.9 °F 10.8 °F 52% 30.22 in 10.0 mi WSW 4.6 mph - N/A   Clear
9:54 PM 25.3 °F 19.7 °F 10.8 °F 54% 30.24 in 10.0 mi WSW 4.6 mph - N/A   Clear
10:14 PM 24.8 °F 17.9 °F 10.9 °F 56% 30.25 in 10.0 mi West 5.8 mph - N/A   Clear
10:54 PM 24.6 °F 17.7 °F 11.5 °F 57% 30.25 in 10.0 mi West 5.8 mph - N/A   Clear
11:14 PM 25.3 °F 19.7 °F 12.6 °F 58% 30.26 in 10.0 mi WSW 4.6 mph - N/A   Clear
11:34 PM 21.7 °F 14.3 °F 12.4 °F 67% 30.26 in 10.0 mi West 5.8 mph - N/A   Clear
11:54 PM 22.3 °F 14.9 °F 12.7 °F 67% 30.27 in 10.0 mi West 5.8 mph - N/A   Clear